Location: Hermaringen
(48.5952°N, 10.2585°E)
Time: 02:16:48
(UTC+00:00)

Altair - Pass Details

Date: 21 February 2026
Orbit: 1502 x 1682 km, 47.2° (Epoch: 13 March)

Event Time Altitude Azimuth Distance (km) Brightness Sun altitude
Rises 07:54:30 0° 284° (WNW) 4,679 9.5 13.9°
Reaches altitude 10° 07:57:32 10° 282° (WNW) 3,713 9.0 14.3°
Maximum altitude 08:06:46 64° 204° (SSW) 1,719 8.1 15.6°
Drops below altitude 10° 08:16:21 10° 126° (SE) 3,843 12.3 16.8°
Sets 08:19:32 0° 123° (ESE) 4,851 11.9 17.2°
